Location: *
(45.0500°N, 12.0500°E)
Time: 13:52:54
(UTC+00:00)

SPOT 3 Rocket - Pass Details

Date: 09 April 2020
Orbit: 778 x 795 km, 98.8° (Epoch: 25 May)

Event Time Altitude Azimuth Distance (km) Brightness Sun altitude
Exits shadow 19:22:44 11° 170° (S) 2,285 5.6 -16.1°
Maximum altitude 19:27:45 78° 256° (WSW) 814 3.7 -16.8°
Drops below altitude 10° 19:32:59 10° 343° (NNW) 2,362 6.7 -17.6°
Sets 19:35:19 0° 345° (NNW) 3,293 7.5 -18.0°
